Regional Weather Roundup
Issued by NWS

Home | Current Version | Previous Version | Graphics & Text | Print | Product List | Glossary On
Versions: 1 2 3 4 5 6 7 8 9 10 11 12 13 14 15 16 17 18 19 20 21 22 23 24 25 26 27 28 29 30 31 32 33 34 35 36 37 38 39 40 41 42 43 44 45 46 47 48 49 50
000
ASUS43 KDTX 300510
RWRMI
MICHIGAN HOURLY REGIONAL WEATHER ROUNDUP
NATIONAL WEATHER SERVICE DETROIT/PONTIAC MI
100 AM EDT THU OCT 30 2014

NOTE: "FAIR" INDICATES FEW OR NO CLOUDS BELOW 12,000 FEET WITH NO
SIGNIFICANT WEATHER AND/OR OBSTRUCTION TO VISIBILITY.

MIZ047>049-052>055-059>063-066>070-074>076-081>083-300600-
SOUTHEAST LOWER MICHIGAN

CITY           SKY/WX    TMP DP  RH WIND       PRES   REMARKS
ADRIAN         CLOUDY    42  37  82 NW6       30.10S
ALMA           CLEAR     31  30  96 W5        30.11R WCI  26
ANN ARBOR      PTCLDY    42  34  73 NW5       30.08S
BAD AXE        CLOUDY    42  37  81 NW5       30.07R
CARO           CLOUDY    43  37  79 CALM      30.07S
DETROIT CITY   MOCLDY    47  36  65 NW3       30.08R
DETROIT        CLOUDY    45  37  73 W7        30.08S
FLINT          CLOUDY    43  35  73 NW6       30.10R
GROSSE ILE     CLOUDY    45  37  76 NW6       30.07S
HILLSDALE      PTCLDY    40  38  93 NW3       30.09S
HOWELL         MOCLDY    39  35  84 NW5       30.09R

CITY           SKY/WX    TMP DP  RH WIND       PRES   REMARKS
JACKSON        CLEAR     39  34  82 W3        30.10R
LAMBERTVILLE   CLOUDY    43  37  81 W3        30.10S
LANSING        CLEAR     36  33  89 W5        30.11R WCI  32
LAPEER         CLOUDY    41  34  78 CALM      30.07S
MASON          CLEAR     37  34  87 W3        30.10S
MONROE         CLOUDY    43  39  87 W3        30.07S
MT. CLEMENS    PTCLDY    43  37  78 NW6       30.05R
PONTIAC        CLEAR     41  33  73 NW6       30.07R
PORT HOPE        N/A     45  36  70 NW5       30.04R
PORT HURON     CLOUDY    43  37  81 NW3       30.06S
TRI CITIES     CLOUDY    39  35  86 W7        30.10R WCI  34
TROY           CLOUDY    46  33  61 NW6       30.09S
SAGINAW HB     CLEAR     37  34  87 W6        30.08S WCI  33
$$
MIZ043>046-050>051-056>058-064>065-071>073-077>080-300600-
SOUTHWEST LOWER MICHIGAN

CITY           SKY/WX    TMP DP  RH WIND       PRES   REMARKS
BATTLE CREEK   CLOUDY    43  35  73 CALM      30.11S
BENTON HARBOR  CLOUDY    47  35  63 W3        30.11F
BIG RAPIDS     CLEAR     31  31 100 CALM      30.08F
COLDWATER      CLOUDY    43  40  87 CALM      30.11S
FREMONT        CLOUDY    40  38  93 CALM      30.09F
HOLLAND        CLOUDY    46  39  76 CALM      30.11S
GRAND RAPIDS   MOCLDY    37  35  92 CALM      30.10F
IONIA          FAIR      35  33  93 W3        30.10R
KALAMAZOO      CLOUDY    44  37  76 CALM      30.11S
LUDINGTON      CLOUDY    42  38  86 CALM      30.09S
MARSHALL       CLOUDY    34  33  97 CALM      30.10S
MOUNT PLEASANT CLEAR     33  32  95 CALM      30.09R
MUSKEGON       CLOUDY    45  38  76 CALM      30.10F
SOUTH HAVEN    CLOUDY    48  36  61 CALM      30.10F
$$
MIZ016>042-300600-
NORTHERN LOWER MICHIGAN

CITY           SKY/WX    TMP DP  RH WIND       PRES   REMARKS
ALPENA         CLEAR     37  30  75 NW6       30.06S WCI  32
BEAVER ISLAND  PTCLDY    39  33  77 CALM      30.08S
BELLAIRE       CLOUDY    42  34  73 CALM      30.09S
CADILLAC       CLOUDY    38  36  91 CALM      30.06S
CHARLEVOIX     CLOUDY    41  34  75 NW8       30.11R
FRANKFORT      CLOUDY    42  39  89 NE3       30.09S
GAYLORD        CLOUDY    36  32  85 CALM      30.06R
GRAYLING       CLOUDY    35  35  98 NW3       30.07S
HARBOR SPRINGS CLEAR     32  30  94 CALM      30.08R
HOUGHTON LAKE  CLOUDY    38  35  89 NW3       30.07S
MANISTEE       CLOUDY    41  37  87 CALM      30.10S
OSCODA         CLOUDY    41  32  70 NW7       30.05S
PELLSTON       MOCLDY    35  30  82 CALM      30.09R
ROGERS CITY    CLOUDY    37  34  87 W7        30.07S WCI  32
TRAVERSE CITY  CLOUDY    43  37  79 CALM      30.08R
$$
MIZ007>008-015-300600-
EASTERN UPPER MICHIGAN

CITY           SKY/WX    TMP DP  RH WIND       PRES   REMARKS
KINROSS        CLOUDY    34  34 100 W7        30.05R WCI  28
MACKINAC ISLAN MOCLDY    37  31  79 NW7       30.07S WCI  32
NEWBERRY       CLOUDY    32  32  99 W5        30.06S WCI  27
S. S. MARIE    CLOUDY    38  33  82 NE3       30.03S
MUNISING         N/A     39  36  89 SW5       30.07S
$$
MIZ004>006-011>014-085-300600-
CENTRAL UPPER MICHIGAN

CITY           SKY/WX    TMP DP  RH WIND       PRES   REMARKS
MANISTIQUE     MOCLDY    28  27  97 CALM      30.08R
ESCANABA       CLOUDY    37  34  87 CALM      30.09S
MENOMINEE      CLOUDY    43  32  65 NW3       30.10R
SAWYER-GWINN   CLOUDY    36  33  88 CALM      30.06S
$$
MIZ001>003-009>011-084-300600-
WESTERN UPPER MICHIGAN

CITY           SKY/WX    TMP DP  RH WIND       PRES   REMARKS
IRON MOUNTAIN  CLOUDY    39  33  79 CALM      30.06F
HOUGHTON       CLOUDY    39  36  89 SW5       30.03S
COPPER HARBOR    N/A     40  36  86 CALM      30.04F
IRONWOOD       CLOUDY    37  34  87 SW6       30.05S WCI  33
$$

ABBREVIATIONS USED IN REMARKS
   TC - TEMPERATURE IN CELSIUS
  WCI - WIND CHILL INDEX
   HX - HEAT INDEX
  VSB - VISIBILITY




USA.gov is the U.S. government's official web portal to all federal, state and local government web resources and services.